Regional Weather Roundup
Issued by NWS Charleston, SC

Current Version | Previous Version | Graphics & Text | Print | Product List | Glossary On
Versions: 1 2 3 4 5 6 7 8 9 10 11 12 13 14 15 16 17 18 19 20 21 22 23 24 25 26 27 28 29 30 31 32 33 34 35 36 37 38 39 40 41 42 43 44 45 46 47 48 49 50
000
ASUS42 KCHS 181423
RWRCHS

REGIONAL WEATHER ROUNDUP
NATIONAL WEATHER SERVICE CHARLESTON SC
1000 AM EDT MON SEP 18 2017

NOTE: "FAIR" INDICATES FEW OR NO CLOUDS BELOW 12,000 FEET WITH NO
SIGNIFICANT WEATHER AND/OR OBSTRUCTIONS TO VISIBILITY.

NOT ALL STATIONS ARE QUALITY CONTROLLED. USE DATA WITH CAUTION...
ESPECIALLY DEWPOINT OBSERVATIONS.

SCZ027-030-031-034>040-042>050-181500-
...SOUTHEAST SOUTH CAROLINA...

CITY           SKY/WX    TMP DP  RH WIND       PRES   REMARKS
N CHARLESTON   MOSUNNY   78  67  68 N10       30.01R
WATERFRONT PRK   N/A     76  69  79 N8        29.85R
JOHNS ISLAND   FAIR      77  70  78 N9        30.01S
PINOPOLIS        N/A     73  70  88 N9        29.95R
MONCKS CORNER  FAIR      75  66  73 N7        30.02S
SUMMERVILLE    FAIR      75  68  78 N6        30.03S
BEAUFORT MCAS  MOSUNNY   79  70  74 N9        30.03R
BEAUFORT ARPT  FAIR      77  70  78 NE8       30.02R
HILTON HEAD IS SUNNY     79  70  73 N12       30.02R
WALTERBORO     SUNNY     77  68  73 NE7       30.04S
ALLENDALE      NOT AVBL

...SOUTHERN MIDLANDS AND PEE DEE...

CITY           SKY/WX    TMP DP  RH WIND       PRES   REMARKS
GEORGETOWN     FAIR      75  70  83 N6        30.02R
KINGSTREE      FAIR      73  68  83 N3        30.03S
ORANGEBURG     SUNNY     77  67  71 NE7       30.05R
BARNWELL       FAIR      79  70  73 CALM      30.05S
AIKEN          FAIR      77  68  73 CALM      30.10R
MANNING        FAIR      73  68  83 CALM      30.04R
COLUMBIA       SUNNY     77  67  71 CALM      30.05R
SUMTER         SUNNY     77  67  69 NE10      30.03R
FLORENCE       SUNNY     74  68  81 NE8       30.04R
MYRTLE BEACH   SUNNY     74  67  78 N14       30.02
N MYRTLE BEACH CLOUDY    73  68  84 N9        30.00R

$$

GAZ063-065-086>088-099>101-113>116-118-119-134>141-150-181500-
...SOUTHEAST GEORGIA...

CITY           SKY/WX    TMP DP  RH WIND       PRES   REMARKS
SAVANNAH ARPT  MOSUNNY   79  69  71 N7        30.03R
HUNTER AAF     SUNNY     79  69  70 N7        30.00R
FORT STEWART   SUNNY     78  68  70 NE3       30.01R
STATESBORO     SUNNY     78  66  66 NE5       30.05R
SYLVANIA       SUNNY     78  72  81 E3        30.06R
CLAXTON        FAIR      80  71  73 CALM      30.04S

...CSRA...CENTRAL AND FAR SOUTHEAST GEORGIA...

CITY           SKY/WX    TMP DP  RH WIND       PRES   REMARKS
THOMSON        SUNNY     76  67  74 CALM      30.12S
AUGUSTA-BUSH   SUNNY     79  68  69 CALM      30.05R
AUGUSTA-DANIEL MOSUNNY   79  67  66 NE3       30.07R
SWAINSBORO     FAIR      79  68  69 CALM      30.06S
VIDALIA        SUNNY     79  70  73 CALM      30.05S
EASTMAN        FAIR      78  61  56 CALM      30.09R
HAZLEHURST     FAIR      78  62  57 N3        30.05R
ALMA           SUNNY     80  67  64 N3        30.04R
WAYCROSS       SUNNY     79  67  66 NE3       30.04R
JESUP          NOT AVBL
BAXLEY         FAIR      77  68  73 N3        30.04S
BRUNSWICK      SUNNY     79  68  69 N6        30.03R
SAINT SIMONS   SUNNY     80  71  74 N7        30.01R

$$

SCZ027-028-034-036>038-045-046-048>050-GAZ119-141-181500-
...LAKE AND SUPPLEMENTAL COASTAL OBSERVATIONS...

STATION/POSITION TIME  TEMP    WIND        PRES    WAVE   SWELL
                       AIR SEA DIR/SP/G            HT/PER HT/PER/DIR
                 (UTC) (F)     (DEG/KT/KT) (MB)    (FT/S) (FT/S/D)
WINYAH BAY       NOT AVBL
LAKE MURRAY      1320   76      CALM  /  1 1016.6
ACE BASIN NERRS  1245   73      10/  2     1016.0
FORT PULASKI     1342   76 79   20/  6/  8 1016.7R
SAPELO ISLAND    1300   75        CALM     1016.0

$$

ANZ835-935-AMZ111-154-330-350-352-354-370-450-454-472-181500-
...C-MAN AND BUOY OBSERVATIONS...

STATION/POSITION TIME  TEMP    WIND        PRES    WAVE   SWELL
                       AIR SEA DIR/SP/G            HT/PER HT/PER/DIR
                 (UTC) (F)     (DEG/KT/KT) (MB)    (FT/S) (FT/S/D)
BUOY 41004       1350   77 82   10/ 14/ 17 1015.0R   6/ 8   5/100/ 8
BUOY 41008       1350   78 80   20/ 12/ 14 1015.5R   5/12   5/ 80/12
FOLLY BEACH CMAN 1400   77     360/  8/  9 1016.8R
CAPERS NEARSHORE 1308   73 78   20/ 12/ 16 1015.5R
FRIPP NEARSHORE  1308   76      10/ 10/ 14 1022.7R


STATION/POSITION TIME  TEMP    WIND        PRES    WAVE   SWELL
                       AIR SEA DIR/SP/G            HT/PER HT/PER/DIR
                 (UTC) (F)     (DEG/KT/KT) (MB)    (FT/S) (FT/S/D)
5E ST. MARYS GA  1400      81                N/A     5/13   3/100/13
FRYING PAN BUOY  1350   76 81   10/ 16/ 21 1014.4R   8/12   7/110/12
BUOY 41025       1350   76 81   10/ 23/ 29 1011.6R  12/13  10/130/13
CAPE LOOKOUT NC  1400   75     360/ 17/ 23 1013.7R
BUOY 41002       1350   80 80  330/ 16/ 19 1010.1R  14/11  11/ 80/11
BUOY 41010       1350      83   30/ 12/ 14 1013.7R  10/12   8/12
ST AUGUSTINE FL  1400   79 81  350/ 14/ 15 1015.9R


$$




USA.gov is the U.S. government's official web portal to all federal, state and local government web resources and services.